Regional Weather Roundup
Issued by NWS

Home | Current Version | Previous Version | Text Only | Print | Product List | Glossary On
Versions: 1 2 3 4 5 6 7 8 9 10 11 12 13 14 15 16 17 18 19 20 21 22 23 24 25 26 27 28 29 30 31 32 33 34 35 36 37 38 39 40 41 42 43 44 45 46 47 48 49 50
000
ASUS43 KLSX 280910
RWRMO

WEATHER SUMMARY FOR MISSOURI
NATIONAL WEATHER SERVICE SPRINGFIELD MO
400 AM CDT TUE MAR 28 2017

NOTE: "FAIR" INDICATES FEW OR NO CLOUDS BELOW 12,000 FEET WITH NO
       SIGNIFICANT WEATHER AND/OR OBSTRUCTIONS TO VISIBILITY.
       CURRENT SKY AND/OR WEATHER CONDITIONS ARE NOT AVAILABLE FOR
       CHILLICOTHE AND FARMINGTON.

MOZ001>031-035>038-043-044-053-054-281000-
...NORTHERN AND WESTERN MISSOURI...

CITY           SKY/WX    TMP DP  RH WIND       PRES   REMARKS
KANSAS CTY INT CLOUDY    48  46  93 NE8       30.02S
KANSAS C DTWN  CLOUDY    50  47  89 NE6       30.02S
LEE`S SUMMIT   CLOUDY    48  46  93 N9        30.01F
ST JOSEPH      CLOUDY    47  46  97 CALM      30.02F
CHILLICOTHE      N/A     48  46  93 N3        30.04R
KIRKSVILLE     CLOUDY    48  47  96 N7        30.01F FOG

$$
MOZ066>068-077>081-088>096-101>105-281000-
...SOUTHWEST MISSOURI...

CITY           SKY/WX    TMP DP  RH WIND       PRES   REMARKS
SPRINGFIELD    CLOUDY    51  49  92 N7        29.97F
JOPLIN         CLOUDY    50  50 100 CALM      29.98F
BRANSON        CLOUDY    50  50 100 CALM      29.98S

$$
MOZ032>034-039>042-045>050-055>058-069>072-281000-
...CENTRAL MISSOURI...

CITY           SKY/WX    TMP DP  RH WIND       PRES   REMARKS
COLUMBIA       CLOUDY    51  50  96 N6        30.00R
JEFFERSON CITY CLOUDY    55  50  83 N5        30.00R
ROLLA          CLOUDY    52  52 100 NE6       29.96S
SEDALIA        LGT RAIN  50  49  96 N7        30.02R FOG
WHITEMAN AFB   DRZL/FOG  49  49 100 N8        30.00F VSB 1
WARRENSBURG    CLOUDY    46  46 100 N5        30.01F FOG
OSAGE BEACH    MIX PCPN N/A N/A N/A VRB3      30.00S

$$
MOZ051-052-059>065-281000-
...EAST CENTRAL MISSOURI...

CITY           SKY/WX    TMP DP  RH WIND       PRES   REMARKS
ST LOUIS INTL  DRIZZLE   53  50  89 N6        29.97F
SPIRIT OF STL  CLOUDY    53  51  93 N7        29.96F
ST CHARLES     CLOUDY    52  51  97 N6        29.97F

$$
MOZ072>076-082>087-097>100-106>115-281000-
...SOUTH CENTRAL AND SOUTHEAST MISSOURI...

CITY           SKY/WX    TMP DP  RH WIND       PRES   REMARKS
CAPE GIRARDEAU CLOUDY    52  50  93 CALM      29.93S
FARMINGTON     CLOUDY    54  51  90 N5        29.96R
POPLAR BLUFF   PTCLDY    53  51  93 CALM      29.95R
WEST PLAINS    CLOUDY    52  50  93 CALM      29.98R

$$



USA.gov is the U.S. government's official web portal to all federal, state and local government web resources and services.